| time (UTC) | temp F | wind direction | speed MPH | gust MPH | rain 1hr in | rain 24hr in | rain mn in | humidity % | barometer mb |
| 20260507085205 | 53 | 5 | 1.0 | 2.0 | 0.00 | 0.00 | 0.00 | 93 | 1017.6 |
| 20260507084702 | 53 | 25 | 1.0 | 4.0 | 0.00 | 0.00 | 0.00 | 93 | 1017.3 |
| 20260507084158 | 53 | 61 | 1.0 | 2.0 | 0.00 | 0.00 | 0.00 | 93 | 1017.2 |
| 20260507083655 | 53 | 307 | 2.0 | 4.0 | 0.00 | 0.00 | 0.00 | 93 | 1017.2 |
| 20260507083152 | 53 | 12 | 1.0 | 3.0 | 0.00 | 0.00 | 0.00 | 93 | 1017.3 |
| 20260507082648 | 53 | 27 | 2.0 | 4.0 | 0.00 | 0.00 | 0.00 | 93 | 1017.2 |
| 20260507082144 | 53 | 283 | 0.0 | 2.0 | 0.00 | 0.00 | 0.00 | 93 | 1017.1 |
| 20260507081641 | 53 | 314 | 0.0 | 3.0 | 0.00 | 0.00 | 0.00 | 93 | 1017.1 |
| 20260507081137 | 53 | 102 | 0.0 | 3.0 | 0.00 | 0.00 | 0.00 | 94 | 1017.1 |
| 20260507080634 | 53 | 113 | 1.0 | 2.0 | 0.00 | 0.00 | 0.00 | 93 | 1017.0 |
| 20260507080131 | 53 | 228 | 0.0 | 2.0 | 0.00 | 0.00 | 0.00 | 93 | 1016.8 |
| 20260507075631 | 54 | 86 | 1.0 | 3.0 | 0.00 | 0.00 | 0.00 | 93 | 1016.9 |
| 20260507075127 | 54 | 7 | 3.0 | 4.0 | 0.00 | 0.00 | 0.00 | 94 | 1016.7 |
| 20260507074624 | 54 | 175 | 0.0 | 2.0 | 0.00 | 0.00 | 0.00 | 94 | 1016.6 |
| 20260507074122 | 54 | 99 | 0.0 | 2.0 | 0.00 | 0.00 | 0.00 | 94 | 1016.7 |
| 20260507073618 | 54 | 34 | 0.0 | 3.0 | 0.00 | 0.00 | 0.00 | 93 | 1016.6 |
| 20260507073114 | 54 | 0 | 3.0 | 3.0 | 0.00 | 0.00 | 0.00 | 93 | 1016.8 |
| 20260507072613 | 54 | 52 | 1.0 | 2.0 | 0.00 | 0.00 | 0.00 | 93 | 1016.5 |
| 20260507072109 | 54 | 299 | 0.0 | 3.0 | 0.00 | 0.00 | 0.00 | 93 | 1016.7 |
| 20260507071607 | 54 | 252 | 0.0 | 3.0 | 0.00 | 0.00 | 0.00 | 93 | 1016.6 |
| 20260507071103 | 54 | 74 | 2.0 | 2.0 | 0.00 | 0.00 | 0.00 | 93 | 1016.6 |
| 20260507070600 | 54 | 115 | 2.0 | 2.0 | 0.00 | 0.00 | 0.00 | 93 | 1016.5 |
| 20260507070057 | 55 | 124 | 0.0 | 3.0 | 0.00 | 0.00 | 0.00 | 93 | 1016.6 |
| 20260507065553 | 55 | 15 | 0.0 | 2.0 | 0.00 | 0.00 | 0.00 | 93 | 1016.6 |
| 20260507065051 | 55 | 174 | 0.0 | 3.0 | 0.00 | 0.00 | 0.00 | 93 | 1016.7 |
| 20260507064549 | 55 | 166 | 0.0 | 2.0 | 0.00 | 0.00 | 0.00 | 93 | 1016.6 |
| 20260507064047 | 55 | 59 | 1.0 | 2.0 | 0.00 | 0.00 | 0.00 | 92 | 1016.8 |
| 20260507063544 | 55 | 178 | 1.0 | 2.0 | 0.00 | 0.00 | 0.00 | 92 | 1016.8 |
| 20260507063041 | 55 | 151 | 0.0 | 3.0 | 0.00 | 0.00 | 0.00 | 92 | 1016.9 |
| 20260507062537 | 55 | 96 | 2.0 | 4.0 | 0.00 | 0.00 | 0.00 | 92 | 1016.8 |
| 20260507062035 | 55 | 125 | 0.0 | 4.0 | 0.00 | 0.00 | 0.00 | 92 | 1016.6 |
| 20260507061533 | 55 | 114 | 1.0 | 5.0 | 0.00 | 0.00 | 0.00 | 92 | 1016.7 |
| 20260507061031 | 55 | 92 | 2.0 | 6.0 | 0.00 | 0.00 | 0.00 | 92 | 1016.5 |
| 20260507060528 | 56 | 99 | 2.0 | 6.0 | 0.00 | 0.00 | 0.00 | 91 | 1016.7 |
| 20260507060025 | 56 | 95 | 2.0 | 6.0 | 0.00 | 0.00 | 0.00 | 91 | 1016.6 |
| 20260507055525 | 56 | 325 | 0.0 | 4.0 | 0.00 | 0.00 | 0.00 | 91 | 1016.6 |
| 20260507055022 | 56 | 98 | 3.0 | 6.0 | 0.00 | 0.00 | 0.00 | 91 | 1016.6 |
| 20260507054518 | 56 | 343 | 2.0 | 4.0 | 0.00 | 0.00 | 0.00 | 91 | 1016.8 |
| 20260507054015 | 56 | 78 | 3.0 | 3.0 | 0.00 | 0.00 | 0.00 | 90 | 1016.9 |
| 20260507053513 | 56 | 109 | 1.0 | 2.0 | 0.00 | 0.00 | 0.00 | 90 | 1016.7 |
| 20260507053012 | 56 | 20 | 0.0 | 3.0 | 0.00 | 0.00 | 0.00 | 90 | 1016.8 |
| 20260507052509 | 56 | 123 | 2.0 | 3.0 | 0.00 | 0.00 | 0.00 | 89 | 1016.8 |
| 20260507052005 | 57 | 55 | 2.0 | 4.0 | 0.00 | 0.00 | 0.00 | 89 | 1016.8 |
| 20260507051503 | 57 | 87 | 1.0 | 3.0 | 0.00 | 0.00 | 0.00 | 88 | 1016.8 |
| 20260507051000 | 57 | 193 | 2.0 | 5.0 | 0.00 | 0.00 | 0.00 | 88 | 1016.8 |
| 20260507050456 | 57 | 66 | 2.0 | 5.0 | 0.00 | 0.00 | 0.00 | 87 | 1016.8 |
| 20260507045953 | 57 | 131 | 0.0 | 4.0 | 0.00 | 0.09 | 0.09 | 87 | 1016.9 |
| 20260507045449 | 57 | 81 | 1.0 | 4.0 | 0.00 | 0.09 | 0.09 | 86 | 1017.0 |
| 20260507044947 | 57 | 130 | 0.0 | 3.0 | 0.00 | 0.09 | 0.09 | 86 | 1016.9 |
| 20260507044443 | 58 | 337 | 2.0 | 3.0 | 0.00 | 0.09 | 0.09 | 85 | 1017.0 |
| 20260507043940 | 58 | 112 | 0.0 | 4.0 | 0.00 | 0.09 | 0.09 | 85 | 1017.0 |
| 20260507043436 | 58 | 336 | 1.0 | 4.0 | 0.00 | 0.09 | 0.09 | 85 | 1017.0 |
| 20260507042932 | 58 | 27 | 4.0 | 5.0 | 0.00 | 0.09 | 0.09 | 84 | 1017.1 |
| 20260507042429 | 58 | 48 | 2.0 | 5.0 | 0.00 | 0.09 | 0.09 | 84 | 1017.0 |
| 20260507041925 | 58 | 322 | 2.0 | 4.0 | 0.00 | 0.09 | 0.09 | 84 | 1017.3 |
| 20260507041422 | 58 | 336 | 2.0 | 5.0 | 0.00 | 0.09 | 0.09 | 84 | 1017.5 |
| 20260507040919 | 58 | 350 | 2.0 | 4.0 | 0.00 | 0.09 | 0.09 | 84 | 1017.3 |
| 20260507040415 | 58 | 141 | 2.0 | 5.0 | 0.00 | 0.09 | 0.09 | 84 | 1017.3 |
| 20260507035911 | 58 | 210 | 2.0 | 8.0 | 0.00 | 0.09 | 0.09 | 85 | 1017.3 |
| 20260507035407 | 58 | 231 | 2.0 | 4.0 | 0.00 | 0.09 | 0.09 | 85 | 1017.1 |
| 20260507034904 | 58 | 280 | 2.0 | 4.0 | 0.00 | 0.09 | 0.09 | 85 | 1017.2 |
| 20260507034401 | 58 | 292 | 3.0 | 5.0 | 0.00 | 0.09 | 0.09 | 84 | 1017.2 |
| 20260507033859 | 58 | 349 | 3.0 | 4.0 | 0.00 | 0.09 | 0.09 | 85 | 1017.0 |
| 20260507033357 | 58 | 160 | 2.0 | 4.0 | 0.00 | 0.09 | 0.09 | 85 | 1017.1 |
| 20260507032853 | 58 | 357 | 2.0 | 4.0 | 0.00 | 0.09 | 0.09 | 85 | 1017.0 |
| 20260507032350 | 58 | 18 | 3.0 | 5.0 | 0.00 | 0.09 | 0.09 | 85 | 1016.9 |
| 20260507031846 | 58 | 33 | 1.0 | 2.0 | 0.00 | 0.09 | 0.09 | 85 | 1016.7 |
| 20260507031343 | 58 | 251 | 2.0 | 5.0 | 0.00 | 0.09 | 0.09 | 84 | 1016.6 |
| 20260507030840 | 58 | 239 | 2.0 | 6.0 | 0.00 | 0.09 | 0.09 | 84 | 1016.8 |
| 20260507030338 | 58 | 165 | 2.0 | 4.0 | 0.00 | 0.09 | 0.09 | 84 | 1016.5 |
| 20260507025834 | 58 | 257 | 2.0 | 5.0 | 0.00 | 0.09 | 0.09 | 85 | 1016.6 |
| 20260507025332 | 58 | 275 | 2.0 | 4.0 | 0.00 | 0.09 | 0.09 | 85 | 1016.4 |
| 20260507024829 | 58 | 349 | 1.0 | 5.0 | 0.00 | 0.09 | 0.09 | 86 | 1016.3 |
| 20260507024326 | 58 | 55 | 4.0 | 5.0 | 0.00 | 0.09 | 0.09 | 87 | 1016.4 |
| 20260507023822 | 58 | 272 | 2.0 | 5.0 | 0.00 | 0.09 | 0.09 | 87 | 1016.2 |
| 20260507023319 | 58 | 4 | 1.0 | 4.0 | 0.00 | 0.09 | 0.09 | 87 | 1016.0 |
| 20260507022816 | 58 | 272 | 3.0 | 7.0 | 0.00 | 0.09 | 0.09 | 87 | 1016.1 |
| 20260507022312 | 58 | 1 | 4.0 | 8.0 | 0.00 | 0.09 | 0.09 | 87 | 1015.9 |
| 20260507021809 | 58 | 318 | 2.0 | 5.0 | 0.00 | 0.09 | 0.09 | 87 | 1015.8 |
| 20260507021304 | 58 | 321 | 5.0 | 5.0 | 0.00 | 0.09 | 0.09 | 87 | 1015.7 |
| 20260507020803 | 58 | 84 | 3.0 | 4.0 | 0.00 | 0.09 | 0.09 | 87 | 1015.8 |
| 20260507020259 | 58 | 358 | 0.0 | 4.0 | 0.00 | 0.09 | 0.09 | 87 | 1015.7 |
| 20260507015756 | 58 | 329 | 2.0 | 5.0 | 0.00 | 0.09 | 0.09 | 87 | 1015.8 |
| 20260507015254 | 58 | 303 | 2.0 | 9.0 | 0.00 | 0.09 | 0.09 | 88 | 1015.3 |
| 20260507014750 | 58 | 68 | 2.0 | 4.0 | 0.00 | 0.09 | 0.09 | 88 | 1015.3 |
| 20260507014247 | 58 | 322 | 1.0 | 4.0 | 0.00 | 0.09 | 0.09 | 88 | 1015.1 |
| 20260507013743 | 58 | 283 | 0.0 | 3.0 | 0.00 | 0.09 | 0.09 | 88 | 1014.9 |
| 20260507013241 | 58 | 330 | 0.0 | 4.0 | 0.00 | 0.09 | 0.09 | 88 | 1015.0 |
| 20260507012738 | 58 | 315 | 2.0 | 4.0 | 0.00 | 0.09 | 0.09 | 88 | 1014.8 |
| 20260507012233 | 58 | 224 | 0.0 | 3.0 | 0.00 | 0.09 | 0.09 | 88 | 1014.9 |
| 20260507011732 | 58 | 87 | 1.0 | 4.0 | 0.00 | 0.09 | 0.09 | 88 | 1014.7 |
| 20260507011228 | 58 | 204 | 2.0 | 4.0 | 0.00 | 0.09 | 0.09 | 88 | 1014.7 |
| 20260507010727 | 58 | 318 | 1.0 | 5.0 | 0.00 | 0.09 | 0.09 | 88 | 1014.5 |
| 20260507010223 | 58 | 92 | 2.0 | 4.0 | 0.00 | 0.09 | 0.09 | 88 | 1014.8 |
| 20260507005721 | 58 | 84 | 3.0 | 5.0 | 0.00 | 0.09 | 0.09 | 87 | 1014.4 |
| 20260507005217 | 58 | 259 | 1.0 | 5.0 | 0.00 | 0.09 | 0.09 | 87 | 1014.7 |
| 20260507004714 | 58 | 305 | 2.0 | 7.0 | 0.00 | 0.09 | 0.09 | 87 | 1014.5 |
| 20260507004212 | 58 | 0 | 4.0 | 6.0 | 0.00 | 0.09 | 0.09 | 87 | 1014.3 |
| 20260507003708 | 58 | 276 | 0.0 | 2.0 | 0.00 | 0.09 | 0.09 | 87 | 1014.5 |
| 20260507003203 | 58 | 279 | 3.0 | 6.0 | 0.00 | 0.09 | 0.09 | 87 | 1014.4 |
| 20260507002659 | 58 | 343 | 2.0 | 4.0 | 0.00 | 0.09 | 0.09 | 87 | 1014.2 |
| 20260507002155 | 58 | 165 | 1.0 | 4.0 | 0.00 | 0.09 | 0.09 | 87 | 1014.0 |
| 20260507001652 | 58 | 296 | 4.0 | 5.0 | 0.00 | 0.09 | 0.09 | 86 | 1014.1 |
| 20260507001150 | 58 | 238 | 0.0 | 2.0 | 0.00 | 0.09 | 0.09 | 87 | 1014.3 |
| 20260507000646 | 58 | 143 | 1.0 | 3.0 | 0.00 | 0.09 | 0.09 | 87 | 1014.0 |
| 20260507000141 | 58 | 346 | 3.0 | 5.0 | 0.00 | 0.09 | 0.09 | 86 | 1013.7 |
| 20260506235639 | 58 | 39 | 2.0 | 3.0 | 0.00 | 0.09 | 0.09 | 86 | 1013.9 |
| 20260506235139 | 58 | 62 | 2.0 | 4.0 | 0.00 | 0.09 | 0.09 | 86 | 1013.9 |
| 20260506234637 | 58 | 312 | 2.0 | 5.0 | 0.00 | 0.09 | 0.09 | 86 | 1014.0 |
| 20260506234133 | 58 | 283 | 2.0 | 4.0 | 0.00 | 0.09 | 0.09 | 87 | 1014.1 |
| 20260506233630 | 58 | 326 | 0.0 | 4.0 | 0.00 | 0.09 | 0.09 | 86 | 1014.4 |
| 20260506233128 | 58 | 1 | 3.0 | 4.0 | 0.00 | 0.09 | 0.09 | 87 | 1014.1 |
| 20260506232623 | 58 | 21 | 0.0 | 10.0 | 0.00 | 0.09 | 0.09 | 86 | 1013.7 |
| 20260506232119 | 58 | 315 | 2.0 | 6.0 | 0.00 | 0.09 | 0.09 | 86 | 1013.9 |
| 20260506231616 | 58 | 304 | 2.0 | 4.0 | 0.00 | 0.09 | 0.09 | 87 | 1013.7 |
| 20260506231115 | 58 | 307 | 2.0 | 6.0 | 0.00 | 0.09 | 0.09 | 87 | 1013.7 |
| 20260506230611 | 58 | 251 | 1.0 | 5.0 | 0.00 | 0.09 | 0.09 | 87 | 1013.6 |
| 20260506230109 | 58 | 297 | 3.0 | 4.0 | 0.00 | 0.09 | 0.09 | 87 | 1013.6 |
| 20260506225605 | 58 | 317 | 6.0 | 6.0 | 0.00 | 0.09 | 0.09 | 86 | 1013.6 |
| 20260506225101 | 58 | 355 | 4.0 | 9.0 | 0.00 | 0.09 | 0.09 | 86 | 1014.0 |
| 20260506224558 | 59 | 10 | 2.0 | 6.0 | 0.00 | 0.09 | 0.09 | 86 | 1013.9 |
| 20260506224055 | 59 | 336 | 2.0 | 7.0 | 0.00 | 0.09 | 0.09 | 86 | 1013.5 |
| 20260506223551 | 59 | 340 | 7.0 | 9.0 | 0.00 | 0.09 | 0.09 | 86 | 1013.2 |
| 20260506223047 | 59 | 329 | 4.0 | 6.0 | 0.00 | 0.09 | 0.09 | 86 | 1013.2 |
| 20260506222544 | 59 | 314 | 4.0 | 6.0 | 0.00 | 0.09 | 0.09 | 86 | 1013.0 |
| 20260506222040 | 59 | 343 | 3.0 | 5.0 | 0.00 | 0.09 | 0.09 | 86 | 1013.1 |
| 20260506221538 | 59 | 342 | 2.0 | 5.0 | 0.00 | 0.09 | 0.09 | 86 | 1013.4 |
| 20260506221036 | 59 | 293 | 2.0 | 5.0 | 0.00 | 0.09 | 0.09 | 87 | 1013.1 |
| 20260506220532 | 59 | 2 | 3.0 | 5.0 | 0.00 | 0.09 | 0.09 | 87 | 1013.3 |
| 20260506220027 | 59 | 323 | 2.0 | 6.0 | 0.00 | 0.09 | 0.09 | 88 | 1013.0 |
| 20260506215525 | 59 | 308 | 4.0 | 5.0 | 0.00 | 0.09 | 0.09 | 88 | 1013.1 |
| 20260506215020 | 59 | 330 | 4.0 | 8.0 | 0.00 | 0.09 | 0.09 | 88 | 1012.8 |
| 20260506214517 | 59 | 75 | 2.0 | 4.0 | 0.00 | 0.09 | 0.09 | 89 | 1012.7 |
| 20260506214014 | 59 | 329 | 3.0 | 6.0 | 0.00 | 0.09 | 0.09 | 89 | 1012.9 |
| 20260506213513 | 59 | 330 | 3.0 | 6.0 | 0.00 | 0.09 | 0.09 | 89 | 1013.0 |
| 20260506213009 | 59 | 354 | 2.0 | 6.0 | 0.00 | 0.09 | 0.09 | 90 | 1013.0 |
| 20260506212506 | 59 | 0 | 2.0 | 4.0 | 0.00 | 0.09 | 0.09 | 90 | 1013.0 |
| 20260506212001 | 58 | 236 | 0.0 | 6.0 | 0.00 | 0.09 | 0.09 | 90 | 1012.8 |
| 20260506211457 | 58 | 335 | 3.0 | 4.0 | 0.00 | 0.09 | 0.09 | 90 | 1013.4 |
| 20260506210954 | 58 | 104 | 2.0 | 4.0 | 0.00 | 0.09 | 0.09 | 90 | 1013.3 |
| 20260506210450 | 58 | 341 | 2.0 | 4.0 | 0.02 | 0.09 | 0.09 | 90 | 1013.3 |
| 20260506205948 | 58 | 282 | 2.0 | 6.0 | 0.12 | 0.09 | 0.09 | 90 | 1013.4 |
| 20260506205444 | 58 | 303 | 1.0 | 4.0 | 0.14 | 0.09 | 0.09 | 90 | 1013.5 |
| 20260506204940 | 57 | 357 | 3.0 | 4.0 | 0.19 | 0.07 | 0.07 | 89 | 1014.0 |
| 20260506204438 | 58 | 342 | 2.0 | 4.0 | 0.19 | 0.07 | 0.07 | 89 | 1013.4 |
| 20260506203935 | 58 | 313 | 3.0 | 5.0 | 0.12 | 0.04 | 0.04 | 88 | 1013.6 |
| 20260506203432 | 58 | 305 | 3.0 | 10.0 | 0.05 | 0.03 | 0.03 | 86 | 1013.4 |
| 20260506202929 | 59 | 303 | 3.0 | 5.0 | 0.00 | 0.02 | 0.02 | 84 | 1013.3 |
| 20260506202426 | 58 | 24 | 3.0 | 11.0 | 0.00 | 0.02 | 0.02 | 83 | 1013.7 |
| 20260506201922 | 58 | 325 | 5.0 | 11.0 | 0.00 | 0.02 | 0.02 | 83 | 1013.5 |
| 20260506201420 | 58 | 331 | 3.0 | 5.0 | 0.00 | 0.02 | 0.02 | 83 | 1014.1 |
| 20260506200916 | 59 | 359 | 3.0 | 10.0 | 0.00 | 0.02 | 0.02 | 83 | 1013.9 |
| 20260506200413 | 58 | 326 | 4.0 | 7.0 | 0.00 | 0.02 | 0.02 | 83 | 1013.7 |
| 20260506195909 | 58 | 319 | 8.0 | 13.0 | 0.00 | 0.02 | 0.02 | 83 | 1013.9 |
| 20260506195407 | 58 | 348 | 8.0 | 8.0 | 0.00 | 0.02 | 0.02 | 83 | 1014.0 |
| 20260506194903 | 58 | 320 | 7.0 | 9.0 | 0.00 | 0.02 | 0.02 | 82 | 1014.3 |
| 20260506194400 | 59 | 297 | 1.0 | 4.0 | 0.00 | 0.02 | 0.02 | 82 | 1014.4 |
| 20260506193857 | 58 | 334 | 3.0 | 6.0 | 0.00 | 0.02 | 0.02 | 82 | 1013.7 |
| 20260506193354 | 59 | 304 | 6.0 | 7.0 | 0.00 | 0.02 | 0.02 | 81 | 1013.5 |
| 20260506192850 | 59 | 348 | 3.0 | 8.0 | 0.00 | 0.02 | 0.02 | 82 | 1013.5 |
| 20260506192347 | 59 | 308 | 6.0 | 12.0 | 0.00 | 0.02 | 0.02 | 82 | 1013.9 |
| 20260506191844 | 59 | 305 | 2.0 | 5.0 | 0.00 | 0.02 | 0.02 | 82 | 1014.1 |
| 20260506191340 | 59 | 314 | 4.0 | 7.0 | 0.00 | 0.02 | 0.02 | 82 | 1014.4 |
| 20260506190838 | 58 | 343 | 2.0 | 5.0 | 0.00 | 0.02 | 0.02 | 82 | 1014.2 |
| 20260506190334 | 59 | 350 | 2.0 | 6.0 | 0.00 | 0.02 | 0.02 | 81 | 1013.9 |
| 20260506185831 | 59 | 310 | 2.0 | 6.0 | 0.00 | 0.02 | 0.02 | 82 | 1013.6 |
| 20260506185328 | 59 | 269 | 0.0 | 4.0 | 0.00 | 0.02 | 0.02 | 81 | 1013.5 |
| 20260506184825 | 59 | 295 | 2.0 | 5.0 | 0.00 | 0.02 | 0.02 | 81 | 1013.1 |
| 20260506184322 | 59 | 341 | 4.0 | 5.0 | 0.00 | 0.02 | 0.02 | 81 | 1012.9 |
| 20260506183820 | 59 | 316 | 4.0 | 5.0 | 0.00 | 0.02 | 0.02 | 81 | 1013.9 |
| 20260506183314 | 59 | 282 | 0.0 | 2.0 | 0.00 | 0.02 | 0.02 | 81 | 1014.0 |
| 20260506182812 | 59 | 119 | 4.0 | 6.0 | 0.00 | 0.02 | 0.02 | 81 | 1013.7 |
| 20260506182309 | 59 | 51 | 3.0 | 4.0 | 0.00 | 0.02 | 0.02 | 81 | 1013.7 |
| 20260506181807 | 59 | 323 | 1.0 | 6.0 | 0.00 | 0.02 | 0.02 | 81 | 1013.4 |
| 20260506181304 | 59 | 124 | 3.0 | 4.0 | 0.00 | 0.02 | 0.02 | 81 | 1013.5 |
| 20260506180802 | 58 | 33 | 2.0 | 7.0 | 0.00 | 0.02 | 0.02 | 82 | 1013.0 |
| 20260506180257 | 58 | 293 | 4.0 | 7.0 | 0.00 | 0.02 | 0.02 | 82 | 1012.2 |
| 20260506175753 | 58 | 260 | 3.0 | 12.0 | 0.00 | 0.02 | 0.02 | 82 | 1011.8 |
| 20260506175251 | 58 | 345 | 3.0 | 6.0 | 0.00 | 0.02 | 0.02 | 82 | 1011.9 |
| 20260506174748 | 59 | 301 | 3.0 | 9.0 | 0.00 | 0.02 | 0.02 | 81 | 1012.0 |
| 20260506174245 | 59 | 328 | 4.0 | 7.0 | 0.00 | 0.02 | 0.02 | 80 | 1012.2 |
| 20260506173743 | 60 | 328 | 9.0 | 10.0 | 0.00 | 0.02 | 0.02 | 80 | 1012.6 |
| 20260506173239 | 59 | 274 | 3.0 | 7.0 | 0.00 | 0.02 | 0.02 | 80 | 1012.9 |
| 20260506172736 | 58 | 284 | 6.0 | 13.0 | 0.00 | 0.02 | 0.02 | 80 | 1013.9 |
| 20260506172233 | 58 | 280 | 2.0 | 5.0 | 0.00 | 0.02 | 0.02 | 81 | 1014.5 |
| 20260506171730 | 58 | 68 | 1.0 | 8.0 | 0.00 | 0.02 | 0.02 | 81 | 1014.8 |
| 20260506171228 | 59 | 294 | 1.0 | 3.0 | 0.00 | 0.02 | 0.02 | 81 | 1014.9 |
| 20260506170725 | 58 | 29 | 3.0 | 3.0 | 0.00 | 0.02 | 0.02 | 82 | 1014.9 |
| 20260506170221 | 58 | 23 | 5.0 | 5.0 | 0.00 | 0.02 | 0.02 | 82 | 1014.4 |
| 20260506165720 | 57 | 181 | 2.0 | 5.0 | 0.00 | 0.02 | 0.02 | 82 | 1013.3 |
| 20260506165216 | 57 | 331 | 3.0 | 6.0 | 0.00 | 0.02 | 0.02 | 82 | 1012.7 |
| 20260506164714 | 58 | 225 | 3.0 | 4.0 | 0.00 | 0.02 | 0.02 | 82 | 1012.9 |
| 20260506164211 | 57 | 274 | 3.0 | 5.0 | 0.00 | 0.02 | 0.02 | 83 | 1013.7 |
| 20260506163707 | 57 | 14 | 3.0 | 6.0 | 0.00 | 0.02 | 0.02 | 83 | 1014.0 |
| 20260506163202 | 57 | 161 | 2.0 | 3.0 | 0.00 | 0.02 | 0.02 | 84 | 1013.9 |
| 20260506162658 | 57 | 152 | 1.0 | 3.0 | 0.00 | 0.02 | 0.02 | 85 | 1014.0 |
| 20260506162156 | 56 | 59 | 2.0 | 6.0 | 0.00 | 0.02 | 0.02 | 85 | 1014.5 |
| 20260506161653 | 56 | 201 | 2.0 | 4.0 | 0.00 | 0.02 | 0.02 | 86 | 1014.4 |
| 20260506161150 | 56 | 172 | 2.0 | 6.0 | 0.00 | 0.02 | 0.02 | 86 | 1014.2 |
| 20260506160648 | 56 | 290 | 6.0 | 6.0 | 0.00 | 0.02 | 0.02 | 88 | 1014.1 |
| 20260506160144 | 55 | 332 | 4.0 | 6.0 | 0.00 | 0.02 | 0.02 | 88 | 1014.2 |
| 20260506155643 | 55 | 292 | 1.0 | 4.0 | 0.00 | 0.02 | 0.02 | 88 | 1014.3 |
| 20260506155140 | 55 | 310 | 5.0 | 5.0 | 0.00 | 0.02 | 0.02 | 88 | 1014.9 |
| 20260506153242 | 55 | 261 | 2.0 | 5.0 | 0.09 | 0.02 | 0.02 | 86 | 1014.8 |
| 20260506152739 | 55 | 319 | 5.0 | 5.0 | 0.00 | 0.00 | 0.00 | 84 | 1015.6 |
| 20260506152236 | 55 | 341 | 2.0 | 8.0 | 0.00 | 0.00 | 0.00 | 83 | 1015.5 |
| 20260506151735 | 55 | 312 | 6.0 | 6.0 | 0.00 | 0.00 | 0.00 | 83 | 1015.1 |
| 20260506151231 | 55 | 332 | 3.0 | 10.0 | 0.00 | 0.00 | 0.00 | 83 | 1014.9 |
| 20260506150727 | 55 | 324 | 3.0 | 8.0 | 0.00 | 0.00 | 0.00 | 83 | 1014.2 |
| 20260506150225 | 55 | 326 | 3.0 | 11.0 | 0.00 | 0.00 | 0.00 | 83 | 1014.0 |
| 20260506145722 | 55 | 325 | 4.0 | 8.0 | 0.00 | 0.00 | 0.00 | 83 | 1014.1 |
| 20260506145218 | 55 | 319 | 4.0 | 6.0 | 0.00 | 0.00 | 0.00 | 82 | 1014.3 |
| 20260506144716 | 55 | 309 | 3.0 | 10.0 | 0.00 | 0.00 | 0.00 | 83 | 1014.3 |
| 20260506144213 | 55 | 347 | 4.0 | 8.0 | 0.00 | 0.00 | 0.00 | 83 | 1014.0 |
| 20260506143710 | 55 | 319 | 3.0 | 11.0 | 0.00 | 0.00 | 0.00 | 82 | 1014.0 |
| 20260506143208 | 55 | 338 | 4.0 | 7.0 | 0.00 | 0.00 | 0.00 | 83 | 1014.0 |
| 20260506142706 | 55 | 2 | 2.0 | 6.0 | 0.00 | 0.00 | 0.00 | 83 | 1014.0 |
| 20260506142204 | 55 | 324 | 2.0 | 7.0 | 0.00 | 0.00 | 0.00 | 83 | 1014.0 |
| 20260506141702 | 55 | 326 | 4.0 | 8.0 | 0.00 | 0.00 | 0.00 | 83 | 1013.7 |
| 20260506141159 | 55 | 304 | 4.0 | 6.0 | 0.00 | 0.00 | 0.00 | 82 | 1013.5 |
| 20260506140657 | 55 | 71 | 5.0 | 6.0 | 0.00 | 0.00 | 0.00 | 83 | 1013.3 |
| 20260506140153 | 55 | 313 | 4.0 | 11.0 | 0.00 | 0.00 | 0.00 | 83 | 1013.1 |
| 20260506135650 | 55 | 319 | 2.0 | 9.0 | 0.00 | 0.00 | 0.00 | 82 | 1013.1 |
| 20260506135147 | 55 | 29 | 4.0 | 6.0 | 0.00 | 0.00 | 0.00 | 82 | 1013.4 |
| 20260506134643 | 55 | 313 | 5.0 | 8.0 | 0.00 | 0.00 | 0.00 | 83 | 1013.3 |
| 20260506134139 | 55 | 341 | 4.0 | 6.0 | 0.00 | 0.00 | 0.00 | 83 | 1013.2 |
| 20260506133637 | 55 | 335 | 3.0 | 6.0 | 0.00 | 0.00 | 0.00 | 83 | 1013.1 |
| 20260506133134 | 55 | 322 | 2.0 | 5.0 | 0.00 | 0.00 | 0.00 | 83 | 1012.9 |
| 20260506132631 | 55 | 290 | 4.0 | 4.0 | 0.00 | 0.00 | 0.00 | 84 | 1012.8 |
| 20260506132128 | 55 | 29 | 0.0 | 8.0 | 0.00 | 0.00 | 0.00 | 83 | 1012.8 |
| 20260506131625 | 55 | 0 | 3.0 | 6.0 | 0.00 | 0.00 | 0.00 | 83 | 1012.7 |
| 20260506131121 | 55 | 30 | 2.0 | 6.0 | 0.00 | 0.00 | 0.00 | 83 | 1012.6 |
| 20260506130619 | 55 | 353 | 2.0 | 7.0 | 0.00 | 0.00 | 0.00 | 83 | 1012.9 |
| 20260506130116 | 55 | 10 | 3.0 | 6.0 | 0.00 | 0.00 | 0.00 | 83 | 1012.8 |
| 20260506125614 | 55 | 7 | 2.0 | 5.0 | 0.00 | 0.00 | 0.00 | 82 | 1013.0 |
| 20260506125111 | 55 | 351 | 5.0 | 6.0 | 0.00 | 0.00 | 0.00 | 82 | 1012.5 |
| 20260506124609 | 55 | 341 | 3.0 | 6.0 | 0.00 | 0.00 | 0.00 | 82 | 1012.6 |
| 20260506124107 | 55 | 356 | 2.0 | 9.0 | 0.00 | 0.00 | 0.00 | 81 | 1012.3 |
| 20260506123604 | 55 | 321 | 3.0 | 8.0 | 0.00 | 0.00 | 0.00 | 81 | 1012.0 |
| 20260506123103 | 55 | 309 | 6.0 | 7.0 | 0.00 | 0.00 | 0.00 | 81 | 1012.1 |
| 20260506122559 | 55 | 321 | 4.0 | 8.0 | 0.00 | 0.00 | 0.00 | 80 | 1012.3 |
| 20260506122057 | 56 | 5 | 2.0 | 8.0 | 0.00 | 0.00 | 0.00 | 80 | 1012.2 |
| 20260506121554 | 56 | 322 | 5.0 | 10.0 | 0.00 | 0.00 | 0.00 | 80 | 1012.4 |
| 20260506121050 | 56 | 323 | 2.0 | 6.0 | 0.00 | 0.00 | 0.00 | 80 | 1012.1 |
| 20260506120549 | 56 | 356 | 0.0 | 4.0 | 0.00 | 0.00 | 0.00 | 80 | 1012.2 |
| 20260506120045 | 56 | 352 | 2.0 | 4.0 | 0.00 | 0.00 | 0.00 | 80 | 1012.0 |
| 20260506115543 | 56 | 25 | 3.0 | 7.0 | 0.00 | 0.00 | 0.00 | 80 | 1011.8 |
| 20260506115042 | 56 | 316 | 2.0 | 8.0 | 0.00 | 0.00 | 0.00 | 80 | 1011.6 |
| 20260506114538 | 56 | 339 | 4.0 | 9.0 | 0.00 | 0.00 | 0.00 | 80 | 1011.7 |
| 20260506114037 | 56 | 314 | 5.0 | 15.0 | 0.00 | 0.00 | 0.00 | 80 | 1011.6 |
| 20260506113535 | 57 | 317 | 4.0 | 11.0 | 0.00 | 0.00 | 0.00 | 79 | 1011.3 |
| 20260506113032 | 57 | 322 | 6.0 | 6.0 | 0.00 | 0.00 | 0.00 | 78 | 1011.6 |
| 20260506112528 | 57 | 316 | 4.0 | 8.0 | 0.00 | 0.00 | 0.00 | 78 | 1011.4 |
| 20260506112025 | 57 | 305 | 4.0 | 7.0 | 0.00 | 0.00 | 0.00 | 78 | 1011.1 |
| 20260506111523 | 57 | 326 | 7.0 | 9.0 | 0.00 | 0.00 | 0.00 | 78 | 1011.2 |
| 20260506111020 | 57 | 338 | 4.0 | 6.0 | 0.00 | 0.00 | 0.00 | 77 | 1011.2 |
| 20260506110518 | 57 | 295 | 2.0 | 8.0 | 0.00 | 0.00 | 0.00 | 77 | 1011.0 |
| 20260506110015 | 58 | 315 | 3.0 | 5.0 | 0.00 | 0.00 | 0.00 | 77 | 1010.9 |
| 20260506105511 | 58 | 327 | 1.0 | 4.0 | 0.00 | 0.00 | 0.00 | 77 | 1010.7 |
| 20260506105008 | 58 | 318 | 3.0 | 4.0 | 0.00 | 0.00 | 0.00 | 77 | 1010.7 |
| 20260506104506 | 58 | 323 | 2.0 | 3.0 | 0.00 | 0.00 | 0.00 | 76 | 1010.6 |
| 20260506104004 | 58 | 298 | 2.0 | 5.0 | 0.00 | 0.00 | 0.00 | 76 | 1010.5 |
| 20260506103501 | 58 | 24 | 3.0 | 8.0 | 0.00 | 0.00 | 0.00 | 76 | 1010.6 |
| 20260506102957 | 58 | 323 | 6.0 | 6.0 | 0.00 | 0.00 | 0.00 | 76 | 1010.3 |
| 20260506102456 | 58 | 342 | 3.0 | 4.0 | 0.00 | 0.00 | 0.00 | 76 | 1010.2 |
| 20260506101953 | 58 | 350 | 2.0 | 5.0 | 0.00 | 0.00 | 0.00 | 76 | 1010.2 |
| 20260506101449 | 58 | 295 | 5.0 | 5.0 | 0.00 | 0.00 | 0.00 | 76 | 1009.9 |
| 20260506100947 | 58 | 339 | 2.0 | 4.0 | 0.00 | 0.00 | 0.00 | 76 | 1010.0 |
| 20260506100445 | 58 | 287 | 3.0 | 3.0 | 0.00 | 0.00 | 0.00 | 77 | 1009.8 |
| 20260506095943 | 58 | 334 | 2.0 | 4.0 | 0.00 | 0.00 | 0.00 | 77 | 1010.0 |
| 20260506095441 | 59 | 299 | 2.0 | 4.0 | 0.00 | 0.00 | 0.00 | 77 | 1009.9 |
| 20260506094937 | 58 | 286 | 4.0 | 7.0 | 0.00 | 0.00 | 0.00 | 76 | 1010.0 |
| 20260506094436 | 59 | 0 | 4.0 | 5.0 | 0.00 | 0.00 | 0.00 | 77 | 1009.9 |
| 20260506093933 | 59 | 287 | 2.0 | 4.0 | 0.00 | 0.00 | 0.00 | 76 | 1009.9 |
| 20260506093431 | 58 | 349 | 2.0 | 4.0 | 0.00 | 0.00 | 0.00 | 76 | 1009.9 |
| 20260506092928 | 58 | 326 | 3.0 | 6.0 | 0.00 | 0.00 | 0.00 | 76 | 1009.8 |
| 20260506092426 | 58 | 337 | 3.0 | 6.0 | 0.00 | 0.00 | 0.00 | 76 | 1009.9 |
| 20260506091922 | 59 | 340 | 6.0 | 6.0 | 0.00 | 0.00 | 0.00 | 76 | 1009.8 |
| 20260506091421 | 59 | 343 | 2.0 | 5.0 | 0.00 | 0.00 | 0.00 | 77 | 1009.8 |
| 20260506090917 | 59 | 295 | 2.0 | 5.0 | 0.00 | 0.00 | 0.00 | 76 | 1009.5 |
| 20260506090415 | 59 | 308 | 2.0 | 4.0 | 0.00 | 0.00 | 0.00 | 76 | 1009.6 |
| 20260506085911 | 59 | 330 | 3.0 | 7.0 | 0.00 | 0.00 | 0.00 | 76 | 1009.5 |